Home   Weather   Odesa   Past weeks

Flag for Ukraine Past Weather in Odesa, Ukraine — Yesterday and Last 2 Weeks

Now
52 °F

Scattered clouds.


Feels Like: 46 °F
Forecast: 44 / 54 °F
Wind: 20 mph from South

Location: Odesa Airport

Current Time: Apr 26, 2017 at 4:47:23 pm

Latest Report: Apr 26, 2017 at 4:00 pm


Visibility: N/A

Pressure: 30.18 "Hg

Humidity: 77%

Dew Point: 45 °F

Location of OdesaLocation

Past Weather in Odesa — Graph

°F

Odesa Temperature Yesterday

Maximum temperature yesterday: 57 °F (at 2:00 pm)
Minimum temperature yesterday: 36 °F (at 1:00 am)
Average temperature yesterday: 46 °F

High & Low Weather Summary for the Past Weeks

 TemperatureHumidityPressure
High63 °F (Apr 15, 2:30 pm)100% (Apr 12, 5:00 am)30.24 "Hg (Apr 12, 5:00 am)
Low32 °F (Apr 19, 4:30 am)29% (Apr 12, 3:30 pm)29.62 "Hg (Apr 21, 5:00 am)
Average46 °F79%29.95 "Hg
* Reported Apr 11 3:00 pm — Apr 26 3:30 pm, Odesa, Weather by CustomWeather, © 2017

Note: Actual official high and low records may vary slightly from our data, if they occured in-between our weather recording intervals... More about our weather records

Advertising

Odesa Weather History for the Previous 24 Hours

Scroll right to see more
 ConditionsComfort  
Time TempWeatherWind HumidityBarometerVisibility
3:30 pm
Wed, Apr 26
52 °FScattered clouds.22 mph82%30.18 "HgN/A
3:00 pm52 °FScattered clouds.22 mph82%30.21 "HgN/A
2:30 pm52 °FPartly sunny.24 mph77%30.21 "HgN/A
2:00 pm52 °FScattered clouds.24 mph82%30.21 "HgN/A
1:30 pm52 °FScattered clouds.24 mph82%30.21 "HgN/A
1:00 pm52 °FScattered clouds.22 mph82%30.24 "HgN/A
12:30 pm52 °FPartly sunny.22 mph82%30.24 "HgN/A
12:00 pm52 °FPartly sunny.20 mph77%30.21 "HgN/A
11:30 am52 °FPartly sunny.24 mph82%30.21 "HgN/A
11:00 am50 °FPartly sunny.24 mph88%30.21 "HgN/A
10:30 am50 °FPartly sunny.24 mph88%30.21 "HgN/A
10:18 am50 °FPartly sunny.22 mph82%30.21 "HgN/A
9:30 am50 °FScattered clouds.20 mph82%30.21 "HgN/A
9:00 am50 °FScattered clouds.20 mph82%30.21 "HgN/A
8:30 am48 °FScattered clouds.20 mph87%30.21 "HgN/A
8:00 am48 °FScattered clouds.17 mph87%30.21 "HgN/A
7:30 am46 °FScattered clouds.17 mph93%30.21 "HgN/A
7:00 am45 °FSunny.15 mph100%30.18 "Hg10 mi
6:30 am45 °FSunny.13 mph93%30.18 "Hg10 mi
6:00 am45 °FSunny.15 mph93%30.18 "Hg10 mi
5:30 am45 °FClear.13 mph93%30.18 "Hg10 mi
5:00 am45 °FClear.13 mph93%30.18 "Hg10 mi
4:30 am45 °FClear.13 mph87%30.18 "Hg10 mi
4:00 am45 °FClear.10 mph87%30.18 "Hg10 mi
3:30 am45 °FClear.10 mph87%30.18 "Hg10 mi
3:00 am45 °FClear.13 mph87%30.18 "Hg10 mi
2:30 am45 °FClear.13 mph87%30.18 "Hg10 mi
2:00 am45 °FClear.13 mph87%30.18 "Hg10 mi
1:30 am45 °FClear.15 mph81%30.18 "Hg10 mi
1:00 am45 °FClear.15 mph81%30.18 "Hg10 mi
12:30 am45 °FPassing clouds.15 mph81%30.21 "HgN/A
12:00 am45 °FClear.17 mph81%30.21 "Hg10 mi
11:30 pm
Tue, Apr 25
45 °FClear.17 mph81%30.21 "Hg10 mi
11:00 pm45 °FClear.15 mph87%30.21 "Hg10 mi
10:30 pm46 °FClear.17 mph82%30.21 "Hg10 mi
10:00 pm46 °FClear.15 mph76%30.21 "Hg10 mi
9:30 pm46 °FPassing clouds.15 mph76%30.18 "HgN/A
9:00 pm46 °FClear.17 mph82%30.18 "Hg10 mi
8:30 pm46 °FClear.20 mph82%30.18 "Hg10 mi
8:00 pm46 °FClear.22 mph82%30.18 "Hg10 mi
7:30 pm48 °FSunny.20 mph71%30.18 "Hg10 mi
7:00 pm48 °FSunny.20 mph76%30.18 "Hg10 mi
6:30 pm50 °FSunny.20 mph71%30.18 "Hg10 mi
6:00 pm50 °FSunny.22 mph71%30.18 "Hg10 mi
5:30 pm52 °FSunny.22 mph67%30.18 "Hg10 mi
5:00 pm54 °FSunny.24 mph63%30.18 "Hg10 mi
4:30 pm54 °FSunny.24 mph67%30.18 "Hg10 mi
4:00 pm54 °FScattered clouds.24 mph67%30.18 "HgN/A
Weather by CustomWeather, © 2017

See weather overviewHow to use our weather pages